Weather History for Oscoda, MI

Change the Weather History Date:

Tuesday, August 12, 2014

  Actual Average Record
Temperature  
Mean Temperature 64 °F -  
Max Temperature 70 °F 75 °F 89 °F (2002)
Min Temperature 57 °F 55 °F 44 °F (1997)
Degree Days  
Heating Degree Days 2    
Growing Degree Days 14 (Base 50)    
Moisture  
Dew Point 62 °F    
Average Humidity 93    
Maximum Humidity 100    
Minimum Humidity 70    
Precipitation  
Precipitation 0.07 in - - ()
Sea Level Pressure  
Sea Level Pressure 29.67 in    
Wind  
Wind Speed 8 mph (WNW)    
Max Wind Speed 15 mph    
Max Gust Speed 21 mph    
Visibility 9 miles    
Events Rain    
Averages and records for this station are not official NWS values.
T = Trace of Precipitation, MM = Missing Value Source: NWS Daily Summary

Daily Weather History Graph

Daily Weather History Graph

Search for Another Location

Airport:

Trip Planner

Search our weather history database for the weather conditions in past years. The results will help you decide how hot, cold, wet, or windy it might be!

Date:

Astronomy

Aug. 12, 2014 Rise Set
Actual Time 6:32 AM EDT 8:43 PM EDT
Civil Twilight 6:01 AM EDT 9:15 PM EDT
Nautical Twilight 5:21 AM EDT 9:54 PM EDT
Astronomical Twilight 4:37 AM EDT 10:37 PM EDT
Moon 9:41 PM EDT (8/12) 8:56 AM EDT (8/12)
Length of Visible Light 15h 14m
Length of Day
14h 10m
Waning Gibbous, 95% of the Moon is Illuminated
Aug 12
Waning Gibbous
Aug 17
Last Quarter
Aug 25
New
Sep 2
First Quarter
Sep 8
Full

Hourly Weather History & Observations

Time (EDT) Temp. Dew Point Humidity Pressure Visibility Wind Dir Wind Speed Gust Speed Precip Events Conditions
12:13 AM 67.3 °F 66.6 °F 98% 29.71 in 7.0 mi East 9.2 mph - N/A Rain Light Rain
12:34 AM 67.1 °F 66.2 °F 97% 29.70 in 5.0 mi East 10.4 mph - 0.01 in Rain Light Rain
12:54 AM 66.7 °F 65.7 °F 96% 29.69 in 7.0 mi East 8.1 mph - 0.02 in Rain Rain
1:14 AM 66.2 °F 64.6 °F 94% 29.68 in 10.0 mi ESE 11.5 mph 16.1 mph N/A   Drizzle
1:34 AM 65.7 °F 64.6 °F 96% 29.67 in 10.0 mi East 9.2 mph 20.7 mph N/A Rain Rain
1:54 AM 65.5 °F 64.4 °F 96% 29.66 in 10.0 mi East 6.9 mph - N/A Rain Rain
2:14 AM 65.7 °F 64.6 °F 96% 29.65 in 10.0 mi East 5.8 mph - N/A Rain Light Rain
2:34 AM 65.3 °F 64.4 °F 97% 29.64 in 10.0 mi East 4.6 mph - N/A Rain Light Rain
2:54 AM 65.3 °F 64.4 °F 97% 29.63 in 10.0 mi ENE 3.5 mph - N/A Rain Rain
3:14 AM 65.3 °F 64.4 °F 97% 29.62 in 10.0 mi Calm Calm - N/A   Light Drizzle
3:33 AM 65.3 °F 64.4 °F 97% 29.61 in 10.0 mi NW 4.6 mph - N/A Rain Light Rain
3:54 AM 64.6 °F 64.4 °F 99% 29.61 in 5.0 mi NW 4.6 mph - N/A   Light Drizzle
4:14 AM 64.4 °F 64.4 °F 100% 29.60 in 5.0 mi NNW 4.6 mph - N/A   Overcast
4:34 AM 64.4 °F 64.4 °F 100% 29.59 in 4.0 mi NNW 4.6 mph - N/A   Overcast
4:54 AM 64.4 °F 64.0 °F 99% 29.59 in 7.0 mi NW 4.6 mph - N/A   Overcast
5:14 AM 64.4 °F 64.0 °F 99% 29.58 in 10.0 mi WNW 3.5 mph - N/A   Overcast
5:33 AM 64.0 °F 63.9 °F 99% 29.58 in 10.0 mi NW 3.5 mph - N/A   Overcast
5:54 AM 64.0 °F 63.7 °F 99% 29.58 in 10.0 mi West 3.5 mph - N/A   Overcast
6:14 AM 64.0 °F 63.7 °F 99% 29.58 in 10.0 mi West 3.5 mph - N/A   Overcast
6:34 AM 64.4 °F 63.9 °F 98% 29.59 in 10.0 mi WSW 5.8 mph - N/A   Overcast
6:54 AM 64.4 °F 63.9 °F 98% 29.60 in 10.0 mi West 5.8 mph - N/A   Overcast
7:14 AM 64.4 °F 63.9 °F 98% 29.60 in 10.0 mi West 5.8 mph - N/A   Overcast
7:33 AM 64.8 °F 64.4 °F 99% 29.60 in 10.0 mi West 4.6 mph - N/A   Overcast
7:54 AM 64.9 °F 64.0 °F 97% 29.60 in 10.0 mi West 4.6 mph - N/A   Overcast
8:14 AM 65.3 °F 64.4 °F 97% 29.60 in 10.0 mi West 5.8 mph - N/A   Overcast
8:33 AM 65.5 °F 64.4 °F 96% 29.61 in 10.0 mi West 4.6 mph - N/A   Overcast
8:54 AM 65.7 °F 64.4 °F 96% 29.61 in 10.0 mi WNW 5.8 mph - N/A   Overcast
9:14 AM 65.8 °F 64.4 °F 95% 29.60 in 10.0 mi WNW 6.9 mph - N/A   Overcast
9:33 AM 66.7 °F 64.8 °F 93% 29.60 in 10.0 mi NW 5.8 mph - N/A   Overcast
9:54 AM 67.3 °F 64.4 °F 90% 29.60 in 10.0 mi NW 8.1 mph - N/A   Overcast
10:13 AM 65.7 °F 63.3 °F 92% 29.61 in 7.0 mi NW 5.8 mph - N/A Rain Light Rain
10:34 AM 67.1 °F 63.9 °F 89% 29.62 in 10.0 mi NW 8.1 mph - N/A   Overcast
10:54 AM 68.4 °F 63.1 °F 83% 29.62 in 10.0 mi NW 9.2 mph - N/A   Overcast
11:13 AM 67.8 °F 62.4 °F 83% 29.63 in 10.0 mi NW 10.4 mph - N/A   Overcast
11:34 AM 67.6 °F 62.2 °F 83% 29.64 in 10.0 mi NW 6.9 mph - N/A   Overcast
11:54 AM 67.1 °F 62.2 °F 84% 29.64 in 10.0 mi NW 11.5 mph - N/A   Overcast
1:34 PM 70.7 °F 61.7 °F 73% 29.65 in 10.0 mi NW 10.4 mph - N/A   Overcast
1:53 PM 70.2 °F 60.1 °F 70% 29.66 in 10.0 mi WNW 15.0 mph 18.4 mph N/A   Overcast
2:14 PM 68.4 °F 60.4 °F 76% 29.66 in 10.0 mi NW 12.7 mph - N/A   Overcast
2:34 PM 66.4 °F 62.4 °F 87% 29.68 in 7.0 mi WNW 9.2 mph - N/A Rain Light Rain
2:53 PM 65.7 °F 61.7 °F 87% 29.68 in 10.0 mi WNW 6.9 mph - N/A   Overcast
3:14 PM 65.3 °F 62.6 °F 91% 29.68 in 7.0 mi NW 9.2 mph - N/A Rain Light Rain
3:34 PM 64.9 °F 62.1 °F 90% 29.68 in 5.0 mi NW 8.1 mph - N/A   Drizzle
3:54 PM 65.3 °F 62.4 °F 90% 29.68 in 10.0 mi NW 9.2 mph - N/A Rain Rain
4:14 PM 65.8 °F 62.2 °F 88% 29.69 in 10.0 mi NW 11.5 mph 16.1 mph N/A   Overcast
4:34 PM 65.7 °F 61.0 °F 85% 29.70 in 10.0 mi NW 9.2 mph - N/A   Overcast
4:54 PM 64.4 °F 61.5 °F 90% 29.70 in 10.0 mi WNW 12.7 mph - N/A Rain Rain
5:14 PM 63.1 °F 61.2 °F 93% 29.70 in 7.0 mi NW 11.5 mph - 0.01 in Rain Rain
5:34 PM 62.6 °F 60.8 °F 94% 29.70 in 7.0 mi WNW 5.8 mph - 0.03 in Rain Light Rain
5:54 PM 62.1 °F 60.4 °F 94% 29.71 in 10.0 mi WNW 9.2 mph - 0.04 in Rain Light Rain
6:14 PM 61.3 °F 59.9 °F 95% 29.71 in 10.0 mi WNW 6.9 mph - N/A Rain Light Rain
6:34 PM 61.2 °F 59.9 °F 96% 29.72 in 10.0 mi WNW 9.2 mph - 0.01 in Rain Light Rain
6:54 PM 61.0 °F 59.5 °F 95% 29.72 in 10.0 mi West 6.9 mph - 0.01 in   Overcast
7:14 PM 60.8 °F 59.2 °F 94% 29.73 in 10.0 mi West 9.2 mph - N/A   Mostly Cloudy
7:54 PM 60.4 °F 59.0 °F 95% 29.73 in 10.0 mi West 8.1 mph - N/A   Overcast
8:13 PM 60.4 °F 58.6 °F 94% 29.74 in 10.0 mi WNW 9.2 mph - N/A   Overcast
8:34 PM 59.9 °F 57.7 °F 93% 29.75 in 10.0 mi WNW 11.5 mph - N/A   Overcast
8:54 PM 59.7 °F 57.7 °F 93% 29.75 in 10.0 mi WNW 9.2 mph - N/A   Overcast
9:14 PM 59.4 °F 57.6 °F 94% 29.75 in 10.0 mi West 9.2 mph - N/A   Overcast
9:34 PM 59.0 °F 57.0 °F 93% 29.76 in 10.0 mi WNW 15.0 mph 19.6 mph N/A   Overcast
9:54 PM 58.5 °F 56.3 °F 93% 29.76 in 10.0 mi WNW 13.8 mph - N/A   Overcast
10:14 PM 58.1 °F 55.6 °F 91% 29.77 in 10.0 mi WNW 13.8 mph 20.7 mph N/A   Overcast
10:34 PM 58.1 °F 55.4 °F 91% 29.77 in 10.0 mi WNW 12.7 mph - N/A   Overcast
10:54 PM 58.1 °F 55.4 °F 91% 29.77 in 10.0 mi WNW 9.2 mph 16.1 mph N/A   Overcast
11:14 PM 57.9 °F 55.4 °F 91% 29.78 in 10.0 mi West 11.5 mph - N/A   Overcast
11:34 PM 57.7 °F 55.2 °F 91% 29.78 in 10.0 mi West 13.8 mph 17.3 mph N/A   Overcast
11:54 PM 57.6 °F 55.0 °F 91% 29.78 in 10.0 mi West 9.2 mph 17.3 mph N/A   Overcast